Home   Weather   New Westminster   Past weeks

Flag for Canada Past Weather in New Westminster, British Columbia, Canada — Yesterday and Last 2 Weeks

Now
53 °F

Cool.


Feels Like: 53 °F
Forecast: 52 / 63 °F
Wind: 3 mph from Southeast

Location: P. Meadows Coastal Station

Current Time: Sep 27, 2016 at 8:45:36 AM

Latest Report: Sep 27, 2016 at 8:00 AM


Visibility: N/A

Pressure: 30.18 "Hg

Humidity: 86%

Dew Point: 49 °F

Location of New WestminsterLocation

Past Weather in New Westminster — Graph

°F

New Westminster Temperature Yesterday

Maximum temperature yesterday: 72 °F (at 2:00 PM)
Minimum temperature yesterday: 50 °F (at 6:00 AM)
Average temperature yesterday: 60 °F

High & Low Weather Summary for the Past Weeks

 TemperatureHumidityPressure
High77 °F (Sep 13, 4:00 PM)99% (Sep 19, 9:00 AM)30.44 "Hg (Sep 19, 9:00 AM)
Low44 °F (Sep 21, 7:00 AM)28% (Sep 12, 2:00 PM)29.81 "Hg (Sep 17, 12:00 PM)
Average59 °F78%30.09 "Hg
* Reported Sep 12 7:00 AM — Sep 27 7:00 AM, New Westminster, Weather by CustomWeather, © 2016

Note: Actual official high and low records may vary slightly from our data, if they occured in-between our weather recording intervals... More about our weather records

Advertising

New Westminster Weather History for the Previous 24 Hours

Scroll right to see more
 ConditionsComfort  
Time TempWeatherWind HumidityBarometerVisibility
7:00 AM
Tue, Sep 27
51 °FCool.5 mph88%30.16 "HgN/A
6:00 AM54 °FCool.3 mph85%30.15 "HgN/A
5:00 AM55 °FCool.2 mph79%30.13 "HgN/A
4:00 AM57 °FCool.1 mph90%30.11 "HgN/A
3:00 AM58 °FCool.2 mph91%30.09 "HgN/A
2:00 AM59 °FCool.1 mph91%30.08 "HgN/A
1:00 AM60 °FCool.1 mph93%30.07 "HgN/A
12:00 AM60 °FCool.1 mph94%30.05 "HgN/A
11:00 PM
Mon, Sep 26
58 °FCool.1 mph94%30.04 "HgN/A
10:00 PM61 °FCool.No wind92%30.04 "HgN/A
9:00 PM62 °FCool.No wind92%30.02 "HgN/A
8:00 PM62 °FMild.No wind92%30.02 "HgN/A
7:00 PM64 °FMild.1 mph86%30.00 "HgN/A
6:00 PM65 °FMild.1 mph85%30.01 "HgN/A
5:00 PM67 °FMild.1 mph78%30.01 "HgN/A
4:00 PM68 °FMild.3 mph72%30.01 "HgN/A
3:00 PM67 °FMild.6 mph75%30.03 "HgN/A
2:00 PM72 °FMild.2 mph60%30.04 "HgN/A
1:00 PM72 °FMild.1 mph61%30.05 "HgN/A
12:00 PM68 °FMild.3 mph69%30.08 "HgN/A
10:00 AM60 °FCool.1 mph84%30.12 "HgN/A
9:00 AM54 °FCool.2 mph97%30.14 "HgN/A
8:00 AM51 °FCool.1 mph97%30.15 "HgN/A
Weather by CustomWeather, © 2016

See weather overviewHow to use our weather pages